Flugplatz Eggersdorf

Für EDCE sind keine METAR/TAF Berichte vorhanden.
Es werden die Flugwettermeldungen vom Flugplatz Berlin-Schönefeld International in 39 km Entfernung angezeigt.

Bericht für EDDB

vom 23.05. um 19:20 UTC

Wind 3 kt aus 40°

Sichtweite 10 km oder mehr

gute Sicht, keine Wolken < 5000 ft, keine CB, keine Wettererscheinungen (CAVOK)

Temperatur 14.0°C

Taupunkt 7.0°C

Luftfeuchtigkeit 63%

Luftdruck 1017 hPa

keine wesentliche Wetteränderung innerhalb den nächsten 2 Stunden zu erwarten

EDDB 231920Z 04003KT CAVOK 14/07 Q1017 NOSIG

Prognose für EDDB

vom 23.05. um 17:00 UTC

Zwischen 18:00 UTC und 06:00 UTC

variable Windrichtung mit 3 kt

Sichtweite 10 km oder mehr

keine signifikanten Wettererscheinungen

keine Wolken


Am 24.05. zwischen 06:00 und 09:00 UTC übergehend zu

Wind 8 kt aus 250°

Sichtweite 10 km oder mehr

keine signifikanten Wettererscheinungen

keine Wolken

TAF EDDB 231700Z 2318/2418 VRB03KT CAVOK BECMG 2406/2409 25008KT
Impressum